Location: Melbourne
(37.8170°S, 144.9670°E)
Time: 18:22:35
(UTC+11:00)

deb Explorer IX - All Passes

Search period start: 16 December 2017 00:00
Search period end: 26 December 2017 00:00
Orbit: 542 x 1120 km, 38.8° (Epoch: 15 December)

Date Brightness Start Highest point End Pass type
(mag) Time Alt. Az. Time Alt. Az. Time Alt. Az.
16 Dec - 09:15:19 10° NNE 09:17:20 13° NE 09:19:28 10° ENE daylight
16 Dec - 10:59:00 10° NW 11:03:31 52° NNE 11:08:51 10° E daylight
16 Dec - 12:45:28 10° W 12:50:37 83° S 12:56:47 10° E daylight
16 Dec - 14:32:23 10° W 14:38:07 87° N 14:44:52 10° ENE daylight
16 Dec - 16:19:31 10° W 16:25:27 44° NNW 16:32:07 10° NE daylight
16 Dec - 18:08:43 10° WNW 18:12:18 15° NW 18:16:01 10° N daylight
17 Dec - 08:55:08 10° NNE 08:57:11 13° NE 08:59:20 10° ENE daylight
17 Dec - 10:38:57 10° NW 10:43:23 53° NNE 10:48:34 10° E daylight
17 Dec - 12:25:27 10° W 12:30:27 82° S 12:36:27 10° E daylight
17 Dec - 14:12:20 10° W 14:17:54 86° NNW 14:24:30 10° ENE daylight
17 Dec - 15:59:26 10° W 16:05:10 42° NNW 16:11:40 10° NE daylight
17 Dec - 17:48:51 10° WNW 17:51:59 14° NW 17:55:16 10° NNW daylight
18 Dec - 08:34:56 10° N 08:37:02 13° NE 08:39:13 10° ENE daylight
18 Dec - 10:18:55 10° NW 10:23:15 54° NNE 10:28:16 10° E daylight
18 Dec - 12:05:26 10° W 12:10:17 82° S 12:16:06 10° E daylight
18 Dec - 13:52:17 10° W 13:57:41 84° NNW 14:04:07 10° ENE daylight
18 Dec - 15:39:22 10° W 15:44:54 40° NNW 15:51:13 10° NE daylight
18 Dec - 17:29:04 10° WNW 17:31:42 13° NW 17:34:26 10° NNW daylight
19 Dec - 08:14:43 10° N 08:16:53 14° NE 08:19:07 10° ENE daylight
19 Dec - 09:58:52 10° NW 10:03:07 55° NNE 10:08:00 10° E daylight
19 Dec - 11:45:24 10° W 11:50:09 81° S 11:55:46 10° E daylight
19 Dec - 13:32:14 10° W 13:37:29 83° NNW 13:43:44 10° ENE daylight
19 Dec - 15:19:18 10° W 15:24:38 38° NNW 15:30:44 10° NE daylight
19 Dec - 17:09:27 10° WNW 17:11:24 11° NW 17:13:25 10° NNW daylight
20 Dec - 07:54:29 10° N 07:56:44 14° NE 07:59:02 10° ENE daylight
20 Dec - 09:38:49 10° WNW 09:43:00 56° NNE 09:47:44 10° E daylight
20 Dec - 11:25:23 10° W 11:30:00 80° S 11:35:27 10° E daylight
20 Dec - 13:12:11 10° W 13:17:17 81° NNW 13:23:21 10° ENE daylight
20 Dec - 14:59:16 10° W 15:04:23 36° NNW 15:10:15 10° NE daylight
20 Dec - 16:50:20 10° NW 16:51:07 10° NW 16:51:54 10° NNW daylight
21 Dec - 07:34:14 10° N 07:36:35 15° NE 07:38:58 10° ENE daylight
21 Dec - 09:18:45 10° WNW 09:22:52 58° NNE 09:27:30 10° E daylight
21 Dec - 11:05:21 10° W 11:09:51 79° S 11:15:08 10° E daylight
21 Dec - 12:52:08 10° W 12:57:06 79° NNW 13:02:58 10° ENE daylight
21 Dec - 14:39:13 10° W 14:44:08 34° NNW 14:49:46 10° NNE daylight
22 Dec - 07:13:59 10° N 07:16:25 15° NE 07:18:55 10° ENE daylight
22 Dec - 08:58:40 10° WNW 09:02:45 59° NNE 09:07:16 10° E daylight
22 Dec - 10:45:19 10° W 10:49:44 79° S 10:54:50 10° E daylight
22 Dec - 12:32:05 10° W 12:36:55 77° NNW 12:42:36 10° ENE daylight
22 Dec - 14:19:12 10° W 14:23:54 31° NNW 14:29:16 10° NNE daylight
23 Dec - 06:53:42 10° N 06:56:15 16° NE 06:58:51 10° ENE daylight
23 Dec - 08:38:34 10° WNW 08:42:38 61° NNE 08:47:03 10° E daylight
23 Dec - 10:25:16 10° W 10:29:36 78° S 10:34:32 10° E daylight
23 Dec - 12:12:04 10° W 12:16:44 75° NNW 12:22:14 10° ENE daylight
23 Dec - 13:59:11 10° W 14:03:40 29° NNW 14:08:46 10° NNE daylight
24 Dec - 06:33:24 10° N 06:36:07 17° NE 06:38:49 10° ENE daylight
24 Dec - 08:18:28 10° WNW 08:22:31 63° NNE 08:26:50 10° E daylight
24 Dec - 10:05:13 10° W 10:09:28 78° S 10:14:16 10° E daylight
24 Dec - 11:52:00 10° W 11:56:33 73° NNW 12:01:52 10° ENE daylight
24 Dec - 13:39:11 10° W 13:43:26 27° NNW 13:48:15 10° NNE daylight
25 Dec - 06:13:05 10° N 06:15:56 18° NNE 06:18:46 10° ENE daylight
25 Dec - 07:58:20 10° WNW 08:02:23 65° NNE 08:06:39 10° E daylight
25 Dec - 09:45:09 10° W 09:49:21 77° S 09:54:00 10° E daylight
25 Dec - 11:31:57 10° W 11:36:23 70° NNW 11:41:32 10° ENE daylight
25 Dec - 13:19:11 10° W 13:23:13 25° NNW 13:27:44 10° NNE daylight
